Moline, IL

4:21 AM CST on February 12, 2016 (GMT -0600)
Quad-City International

Weather History for KMLI - September, 2013

Change the Weather History Date:

Monday, September 30, 2013

  Actual Average Record
Temperature  
Mean Temperature 60 °F 59 °F  
Max Temperature 78 °F 71 °F 92 °F (1952)
Min Temperature 42 °F 48 °F 28 °F (1899)
Degree Days  
Heating Degree Days 5 7  
Month to date heating degree days 67 96  
Since 1 July heating degree days 78 104  
Cooling Degree Days 0 1  
Month to date cooling degree days 157 106  
Year to date cooling degree days 971 989  
Growing Degree Days 10 (Base 50)    
Moisture  
Dew Point 46 °F    
Average Humidity 60    
Maximum Humidity 89    
Minimum Humidity 30    
Precipitation  
Precipitation 0.00 in 0.09 in 3.44 in (1919)
Month to date precipitation 0.96 3.09  
Year to date precipitation 33.57 30.25  
Snow  
Snow 0.00 in 0.00 in - ()
Month to date snowfall 0.0 0.0  
Since 1 July snowfall 0.0 0.0  
Since 1 September snowfall 0.0 0.0  
Snow Depth 0.00 in    
Sea Level Pressure  
Sea Level Pressure 29.92 in    
Wind  
Wind Speed 7 mph (SSE)    
Max Wind Speed 15 mph    
Max Gust Speed 20 mph    
Visibility 10 miles    
Events      
T = Trace of Precipitation, MM = Missing Value Source: NWS Daily Summary

Daily Weather History Graph

Daily Weather History Graph

Search for Another Location

Airport or City:

Trip Planner

Search our weather history database for the weather conditions in past years. The results will help you decide how hot, cold, wet, or windy it might be!

Date:

Astronomy

Sep. 30, 2013 Rise Set
Actual Time 6:58 AM CDT 6:45 PM CDT
Civil Twilight 6:30 AM CDT 7:12 PM CDT
Nautical Twilight 5:58 AM CDT 7:44 PM CDT
Astronomical Twilight 5:25 AM CDT 8:17 PM CDT
Moon 2:32 AM CDT (9/30) 4:18 PM CDT (9/30)
Length of Visible Light 12h 42m
Length of Day
11h 47m
Waning Crescent, 19% of the Moon is Illuminated
Sep 30
Waning Crescent
Oct 4
New
Oct 11
First Quarter
Oct 18
Full
Oct 26
Last Quarter

Hourly Weather History & Observations

Time (CDT) Temp. Windchill Dew Point Humidity Pressure Visibility Wind Dir Wind Speed Gust Speed Precip Events Conditions
12:52 AM 48.9 °F - 41.0 °F 74% 29.99 in 10.0 mi Calm Calm - N/A   Clear
1:52 AM 52.0 °F - 42.1 °F 69% 29.97 in 10.0 mi East 3.5 mph - N/A   Clear
2:52 AM 51.1 °F - 42.1 °F 71% 29.96 in 10.0 mi Calm Calm - N/A   Clear
3:52 AM 50.0 °F - 42.1 °F 74% 29.98 in 10.0 mi Calm Calm - N/A   Clear
4:52 AM 43.0 °F 38.8 °F 39.9 °F 89% 29.98 in 10.0 mi East 6.9 mph - N/A   Clear
5:52 AM 46.9 °F - 43.0 °F 86% 29.97 in 10.0 mi East 4.6 mph - N/A   Clear
6:52 AM 48.0 °F - 44.1 °F 86% 29.99 in 10.0 mi Calm Calm - N/A   Clear
7:52 AM 50.0 °F - 46.0 °F 86% 29.99 in 10.0 mi East 3.5 mph - N/A   Clear
8:52 AM 57.0 °F - 50.0 °F 77% 29.98 in 10.0 mi SSE 9.2 mph - N/A   Clear
9:52 AM 62.1 °F - 50.0 °F 65% 29.96 in 10.0 mi SSE 10.4 mph - N/A   Clear
10:52 AM 68.0 °F - 48.0 °F 49% 29.95 in 10.0 mi SSE 10.4 mph - N/A   Clear
11:52 AM 71.1 °F - 45.0 °F 39% 29.94 in 10.0 mi South 10.4 mph - N/A   Clear
12:52 PM 73.9 °F - 44.1 °F 34% 29.92 in 10.0 mi South 11.5 mph - N/A   Clear
1:52 PM 73.9 °F - 45.0 °F 35% 29.88 in 10.0 mi SSW 10.4 mph 18.4 mph N/A   Clear
2:52 PM 77.0 °F - 45.0 °F 32% 29.86 in 10.0 mi South 11.5 mph 18.4 mph N/A   Clear
3:52 PM 78.1 °F - 44.1 °F 30% 29.84 in 10.0 mi South 9.2 mph 17.3 mph N/A   Clear
4:52 PM 77.0 °F - 46.9 °F 34% 29.84 in 10.0 mi South 6.9 mph - N/A   Clear
5:52 PM 75.0 °F - 48.9 °F 40% 29.83 in 10.0 mi South 8.1 mph - N/A   Clear
6:52 PM 70.0 °F - 50.0 °F 49% 29.84 in 10.0 mi South 4.6 mph - N/A   Clear
7:52 PM 64.0 °F - 50.0 °F 60% 29.85 in 10.0 mi SSE 6.9 mph - N/A   Clear
8:52 PM 63.0 °F - 51.1 °F 65% 29.85 in 10.0 mi SSE 3.5 mph - N/A   Clear
9:52 PM 64.0 °F - 53.1 °F 67% 29.83 in 10.0 mi South 6.9 mph - N/A   Clear
10:52 PM 64.9 °F - 55.0 °F 70% 29.85 in 10.0 mi SSW 8.1 mph - N/A   Clear
11:52 PM 64.0 °F - 55.9 °F 75% 29.86 in 10.0 mi SSW 8.1 mph - N/A   Clear